Regional Weather Roundup
Issued by NWS

Home | Current Version | Previous Version | Graphics & Text | Print | Product List | Glossary On
Versions: 1 2 3 4 5 6 7 8 9 10 11 12 13 14 15 16 17 18 19 20 21 22 23 24 25 26 27 28 29 30 31 32 33 34 35 36 37 38 39 40 41 42 43 44 45 46 47 48 49 50
000
ASUS43 KFSD 031802
RWRSD

WEATHER ROUNDUP FOR SOUTH DAKOTA
NATIONAL WEATHER SERVICE SIOUX FALLS SD
100 PM CDT MON AUG 03 2015

NOTE: "FAIR" INDICATES FEW OR NO CLOUDS BELOW 12,000 FEET WITH NO
SIGNIFICANT WEATHER AND/OR OBSTRUCTIONS TO VISIBILITY.


SDZ001>005-009-010-012>017-031900-
NORTHWEST AND NORTH CENTRAL SOUTH DAKOTA

CITY           SKY/WX    TMP DP  RH WIND       PRES   REMARKS
BUFFALO          N/A     81  51  35 SE12      29.98F
FAITH            N/A     79  48  33 VRB5      30.03F
MOBRIDGE       SUNNY     79  56  45 W7        29.99F
$$

SDZ012>016-024>037-041>051-057-063-072>074-031900-
SOUTHWEST AND SOUTH CENTRAL SOUTH DAKOTA

CITY           SKY/WX    TMP DP  RH WIND       PRES   REMARKS
RAPID CTY ARPT SUNNY     79  57  46 E12       30.04F
PIERRE         SUNNY     80  53  39 CALM      30.00F
CUSTER         SUNNY     73  56  54 E9        30.15F
ELLSWORTH AFB  SUNNY     80  56  44 S12G20    30.03F
PHILIP         SUNNY     81  58  45 SE9       30.01F
PINE RIDGE     MOSUNNY   80  61  52 SE10      30.02F
WINNER         FAIR      83  55  38 SE7       30.01F
$$

SDZ004>011-016>023-039-040-031900-
NORTHEAST SOUTH DAKOTA

CITY           SKY/WX    TMP DP  RH WIND       PRES   REMARKS
ABERDEEN       SUNNY     79  49  34 MISG      29.99F
WATERTOWN      SUNNY     77  52  41 W12       29.99F
BROOKINGS      MOSUNNY   75  55  50 NW14G20   30.01S
SISSETON         N/A     77  53  43 N12G21    29.96F
$$

SDZ017-020-022-023-036>040-048>070-031900-
SOUTHEAST SOUTH DAKOTA

CITY           SKY/WX    TMP DP  RH WIND       PRES   REMARKS
SIOUX FALLS    MOSUNNY   78  57  48 NW9       30.00S
HURON          MOSUNNY   79  54  41 VRB5      29.98F
CHAMBERLAIN    SUNNY     78  59  50 CALM      30.01F
MITCHELL       SUNNY     79  58  48 CALM      30.00S
YANKTON        SUNNY     77  57  50 S5        29.98S
$$

ABBREVIATIONS USED IN REMARKS
   TC - TEMPERATURE IN CELSIUS
  WCI - WIND CHILL INDEX
   HX - HEAT INDEX
  VSB - VISIBILITY



USA.gov is the U.S. government's official web portal to all federal, state and local government web resources and services.